SBTE Airport Information

Runway Information
Runway 2 Length 7218 ft width 148 ft
Elevation 0 ft Threshold 0 ft Heading 0
Runway 20 Length 7218 ft Width 148 ft
Elevation 0 ft Threshold 0 ft Heading 0
Airport Frequencies
Type APP Name TERESINA A Frequency 119.6 MHZ
Type ATIS Name TERESINA A Frequency 127.8 MHZ
Type TWR Name TWR Frequency 118.8 MHZ
Airport Navaids
Type VOR-DME Name Teresina Frequency 112300 KHZ
Type NDB Name Teresina Frequency 215 KHZ
Airport Weather Information & NOTAM
ADDS - METARS form results

(1010 UTC 18 August 2018)
 
METAR text: SBTE 181000Z 03002KT CAVOK 25/21 Q1016
Conditions at: SBTE (TERESINA AIRPORT, BR) observed 1000 UTC 18 August 2018
Temperature: 25.0°C (77°F)
Dewpoint: 21.0°C (70°F) [RH = 79%]
Pressure (altimeter): 30.00 inches Hg (1016.0 mb)
Winds: from the NNE (30 degrees) at 2 MPH (2 knots; 1.0 m/s)
Visibility: 6 or more miles (10+ km)
Ceiling: ceiling and visibility are OK
Clouds: unknown
Weather: no significant weather observed at this time